Crystal River, FL

6:51 PM EST on December 09, 2019 (GMT -0500)
Crystal River

Weather History for KCGC - September, 2019

Change the Weather History Date:

Monday, September 16, 2019

  Actual Average (KBKV) Record (KBKV)
Temperature  
Mean Temperature 82 °F -  
Max Temperature 91 °F 87 °F 95 °F (2007)
Min Temperature 73 °F 68 °F 60 °F (2001)
Cooling Degree Days 17    
Growing Degree Days 32 (Base 50)    
Moisture  
Dew Point 73 °F    
Average Humidity 79    
Maximum Humidity 100    
Minimum Humidity 49    
Precipitation  
Precipitation 0.00 in - - ()
Sea Level Pressure  
Sea Level Pressure 29.97 in    
Wind  
Wind Speed 2 mph (NW)    
Max Wind Speed 14 mph    
Max Gust Speed 17 mph    
Visibility 10 miles    
Events      
Averages and records for this station are not official NWS values.
T = Trace of Precipitation, MM = Missing Value Source: NWS Daily Summary

Daily Weather History Graph

Daily Weather History Graph

Search for Another Location

Airport or City:

Astronomy

Sep. 16, 2019 Rise Set
Actual Time 7:15 AM EDT 7:34 PM EDT
Civil Twilight 6:51 AM EDT 7:57 PM EDT
Nautical Twilight 6:24 AM EDT 8:25 PM EDT
Astronomical Twilight 5:56 AM EDT 8:53 PM EDT
Moon 9:17 PM EDT (9/16) 9:14 AM EDT (9/16)
Length of Visible Light 13h 06m
Length of Day
12h 18m
Waning Gibbous, 94% of the Moon is Illuminated
Sep 16
Waning Gibbous
Sep 21
Last Quarter
Sep 28
New
Oct 5
First Quarter
Oct 13
Full

Hourly Weather History & Observations

Time (EDT) Temp. Heat Index Dew Point Humidity Pressure Visibility Wind Dir Wind Speed Gust Speed Precip Events Conditions
12:15 AM 77.0 °F - 73.4 °F 89% 29.97 in 10.0 mi Calm Calm - N/A   Clear
12:35 AM 77.0 °F - 73.4 °F 89% 29.97 in 10.0 mi Calm Calm - N/A   Clear
12:55 AM 77.0 °F - 73.4 °F 89% 29.96 in 10.0 mi North 3.5 mph - N/A   Clear
1:15 AM 77.0 °F - 73.4 °F 89% 29.96 in 10.0 mi Calm Calm - N/A   Clear
1:35 AM 77.0 °F - 73.4 °F 89% 29.96 in 10.0 mi Calm Calm - N/A   Clear
1:55 AM 75.2 °F - 73.4 °F 94% 29.97 in 10.0 mi Calm Calm - N/A   Clear
2:15 AM 75.2 °F - 73.4 °F 94% 29.97 in 10.0 mi Calm Calm - N/A   Clear
2:35 AM 75.2 °F - 73.4 °F 94% 29.97 in 10.0 mi Calm Calm - N/A   Clear
2:55 AM 75.2 °F - 73.4 °F 94% 29.96 in 10.0 mi Calm Calm - N/A   Clear
3:15 AM 73.4 °F - 71.6 °F 94% 29.95 in 10.0 mi Calm Calm - N/A   Clear
3:35 AM 73.4 °F - 71.6 °F 94% 29.95 in 10.0 mi Calm Calm - N/A   Clear
4:15 AM 73.4 °F - 71.6 °F 94% 29.95 in 10.0 mi Calm Calm - N/A   Clear
4:35 AM 73.4 °F - 71.6 °F 94% 29.95 in 10.0 mi Calm Calm - N/A   Clear
4:55 AM 73.4 °F - 71.6 °F 94% 29.96 in 10.0 mi Calm Calm - N/A   Clear
5:15 AM 73.4 °F - 71.6 °F 94% 29.96 in 10.0 mi Calm Calm - N/A   Clear
5:35 AM 73.4 °F - 71.6 °F 94% 29.97 in 10.0 mi Calm Calm - N/A   Clear
5:55 AM 73.4 °F - 71.6 °F 94% 29.97 in 10.0 mi Calm Calm - N/A   Clear
6:15 AM 73.4 °F - 71.6 °F 94% 29.98 in 10.0 mi Calm Calm - N/A   Clear
6:35 AM 73.4 °F - 71.6 °F 94% 29.98 in 10.0 mi Calm Calm - N/A   Clear
6:55 AM 73.4 °F - 71.6 °F 94% 29.99 in 10.0 mi Calm Calm - N/A   Clear
7:15 AM 73.4 °F - 71.6 °F 94% 29.99 in 10.0 mi Calm Calm - N/A   Clear
7:35 AM 73.4 °F - 71.6 °F 94% 30.00 in 10.0 mi Calm Calm - N/A   Clear
7:55 AM 73.4 °F - 73.4 °F 100% 30.01 in 10.0 mi Calm Calm - N/A   Clear
8:15 AM 75.2 °F - 73.4 °F 94% 30.01 in 10.0 mi Calm Calm - N/A   Clear
8:35 AM 77.0 °F - 73.4 °F 89% 30.01 in 10.0 mi Calm Calm - N/A   Clear
8:55 AM 77.0 °F - 73.4 °F 89% 30.02 in 10.0 mi Calm Calm - N/A   Clear
9:15 AM 78.8 °F - 73.4 °F 83% 30.02 in 10.0 mi NNE 4.6 mph - N/A   Clear
9:35 AM 80.6 °F 85.4 °F 73.4 °F 79% 30.02 in 10.0 mi NNE 6.9 mph - N/A   Clear
9:55 AM 82.4 °F 88.2 °F 73.4 °F 74% 30.02 in 10.0 mi NNE 5.8 mph - N/A   Clear
10:15 AM 84.2 °F 90.9 °F 73.4 °F 70% 30.02 in 10.0 mi North 4.6 mph - N/A   Clear
10:35 AM 86.0 °F 93.4 °F 73.4 °F 66% 30.02 in 10.0 mi NE 5.8 mph - N/A   Clear
10:55 AM 86.0 °F 93.4 °F 73.4 °F 66% 30.02 in 10.0 mi Calm Calm - N/A   Clear
11:15 AM 87.8 °F 95.6 °F 73.4 °F 62% 30.02 in 10.0 mi North 3.5 mph - N/A   Scattered Clouds
11:55 AM 89.6 °F 96.2 °F 71.6 °F 55% 30.00 in 10.0 mi Calm Calm - N/A   Scattered Clouds
12:15 PM 87.8 °F 93.8 °F 71.6 °F 58% 29.99 in 10.0 mi NNW 6.9 mph - N/A   Scattered Clouds
12:35 PM 89.6 °F 96.2 °F 71.6 °F 55% 29.99 in 10.0 mi Calm Calm - N/A   Scattered Clouds
12:55 PM 89.6 °F 96.2 °F 71.6 °F 55% 29.98 in 10.0 mi North 3.5 mph - N/A   Scattered Clouds
1:15 PM 89.6 °F 96.2 °F 71.6 °F 55% 29.98 in 10.0 mi NNE 4.6 mph - N/A   Scattered Clouds
1:35 PM 91.4 °F 98.4 °F 71.6 °F 52% 29.98 in 10.0 mi WNW 4.6 mph - N/A   Mostly Cloudy
1:55 PM 91.4 °F 98.4 °F 71.6 °F 52% 29.97 in 10.0 mi Calm Calm - N/A   Mostly Cloudy
2:15 PM 91.4 °F 98.4 °F 71.6 °F 52% 29.97 in 10.0 mi NNE 4.6 mph - N/A   Mostly Cloudy
2:35 PM 89.6 °F 94.7 °F 69.8 °F 52% 29.96 in 10.0 mi Calm Calm - N/A   Mostly Cloudy
2:55 PM 91.4 °F 96.8 °F 69.8 °F 49% 29.96 in 10.0 mi NW 4.6 mph - N/A   Mostly Cloudy
3:15 PM 87.8 °F 95.6 °F 73.4 °F 62% 29.95 in 10.0 mi West 5.8 mph - N/A   Mostly Cloudy
3:35 PM 89.6 °F 102.2 °F 77.0 °F 66% 29.95 in 10.0 mi West 13.8 mph - N/A   Mostly Cloudy
3:55 PM 89.6 °F 99.8 °F 75.2 °F 62% 29.94 in 10.0 mi West 8.1 mph - N/A   Mostly Cloudy
4:15 PM 89.6 °F 99.8 °F 75.2 °F 62% 29.93 in 10.0 mi West 10.4 mph - N/A   Scattered Clouds
4:35 PM 89.6 °F 99.8 °F 75.2 °F 62% 29.93 in 10.0 mi West 9.2 mph 16.1 mph N/A   Mostly Cloudy
4:55 PM 89.6 °F 98.2 °F 73.4 °F 59% 29.93 in 10.0 mi WNW 8.1 mph - N/A   Scattered Clouds
5:15 PM 87.8 °F 97.6 °F 75.2 °F 66% 29.93 in 10.0 mi WNW 5.8 mph 17.3 mph N/A   Clear
5:35 PM 87.8 °F 97.6 °F 75.2 °F 66% 29.93 in 10.0 mi West 9.2 mph 16.1 mph N/A   Scattered Clouds
5:55 PM 87.8 °F 95.6 °F 73.4 °F 62% 29.93 in 10.0 mi WNW 8.1 mph 17.3 mph N/A   Scattered Clouds
6:15 PM 86.0 °F 93.4 °F 73.4 °F 66% 29.94 in 10.0 mi WNW 8.1 mph 17.3 mph N/A   Scattered Clouds
6:35 PM 86.0 °F 93.4 °F 73.4 °F 66% 29.94 in 10.0 mi WNW 5.8 mph 16.1 mph N/A   Scattered Clouds
6:55 PM 86.0 °F 93.4 °F 73.4 °F 66% 29.94 in 10.0 mi West 6.9 mph - N/A   Clear
7:15 PM 84.2 °F 90.9 °F 73.4 °F 70% 29.95 in 10.0 mi WNW 5.8 mph - N/A   Clear
7:35 PM 82.4 °F 89.5 °F 75.2 °F 79% 29.95 in 10.0 mi West 3.5 mph - N/A   Clear
7:55 PM 82.4 °F 89.5 °F 75.2 °F 79% 29.94 in 10.0 mi Calm Calm - N/A   Clear
8:15 PM 82.4 °F 90.9 °F 77.0 °F 84% 29.94 in 10.0 mi Calm Calm - N/A   Clear
8:35 PM 80.6 °F 87.1 °F 77.0 °F 89% 29.94 in 10.0 mi Calm Calm - N/A   Clear
8:55 PM 80.6 °F 87.1 °F 77.0 °F 89% 29.94 in 10.0 mi Calm Calm - N/A   Clear
9:15 PM 78.8 °F - 77.0 °F 94% 29.95 in 10.0 mi Calm Calm - N/A   Clear
9:35 PM 78.8 °F - 77.0 °F 94% 29.96 in 10.0 mi Calm Calm - N/A   Clear
9:55 PM 78.8 °F - 75.2 °F 89% 29.96 in 10.0 mi Calm Calm - N/A   Clear
10:15 PM 77.0 °F - 75.2 °F 94% 29.96 in 10.0 mi Calm Calm - N/A   Clear
10:35 PM 77.0 °F - 75.2 °F 94% 29.97 in 10.0 mi Calm Calm - N/A   Clear
11:35 PM 77.0 °F - 75.2 °F 94% 29.96 in 10.0 mi Calm Calm - N/A   Clear
11:55 PM 77.0 °F - 75.2 °F 94% 29.96 in 10.0 mi Calm Calm - N/A   Clear